Home   Weather   Lichfield   Past weeks

Flag for United Kingdom Past Weather in Lichfield, England, United Kingdom — Yesterday and Last 2 Weeks

Now
50 °F

Clear.


Feels Like: 48 °F
Forecast: 40 / 55 °F
Wind: 6 mph from West

Location: Birmingham / Airport

Current Time: Apr 29, 2017 at 12:57:16 am

Latest Report: Apr 29, 2017 at 12:20 am


Visibility: 10 mi

Pressure: 29.98 "Hg

Humidity: 82%

Dew Point: 45 °F

Location of LichfieldLocation

Past Weather in Lichfield — Graph

°F

Lichfield Temperature Yesterday

Maximum temperature yesterday: 52 °F (at 12:50 pm)
Minimum temperature yesterday: 43 °F (at 5:50 am)
Average temperature yesterday: 48 °F

High & Low Weather Summary for the Past Weeks

 TemperatureHumidityPressure
High59 °F (Apr 22, 3:20 pm)100% (Apr 14, 6:50 pm)30.63 "Hg (Apr 14, 6:50 pm)
Low30 °F (Apr 27, 3:20 am)35% (Apr 18, 5:50 pm)29.89 "Hg (Apr 25, 3:50 am)
Average47 °F72%30.22 "Hg
* Reported Apr 13 11:20 pm — Apr 28 11:20 pm, Lichfield, Weather by CustomWeather, © 2017

Note: Actual official high and low records may vary slightly from our data, if they occured in-between our weather recording intervals... More about our weather records

Advertising

Lichfield Weather History for the Previous 24 Hours

Scroll right to see more
 ConditionsComfort  
Time TempWeatherWind HumidityBarometerVisibility
11:20 pm
Fri, Apr 28
50 °FPassing clouds.5 mph82%30.01 "HgN/A
10:50 pm50 °FPartly cloudy.3 mph82%30.01 "HgN/A
10:20 pm50 °FPassing clouds.2 mph76%30.01 "HgN/A
9:50 pm50 °FPassing clouds.2 mph82%30.01 "HgN/A
9:20 pm50 °FPassing clouds.2 mph76%29.98 "HgN/A
8:50 pm50 °FPassing clouds.2 mph76%29.98 "HgN/A
8:20 pm52 °FPartly sunny.3 mph67%29.98 "HgN/A
7:50 pm52 °FPartly sunny.5 mph67%29.98 "HgN/A
7:20 pm52 °FPassing clouds.5 mph67%29.98 "HgN/A
6:50 pm52 °FBroken clouds.5 mph67%29.98 "HgN/A
6:20 pm52 °FBroken clouds.5 mph67%30.01 "HgN/A
5:50 pm52 °FBroken clouds.5 mph72%30.01 "HgN/A
5:20 pm52 °FBroken clouds.5 mph67%30.01 "HgN/A
4:50 pm52 °FPartly sunny.6 mph67%30.01 "HgN/A
4:20 pm52 °FPartly sunny.5 mph62%30.01 "HgN/A
3:50 pm52 °FPartly sunny.5 mph58%30.01 "HgN/A
3:20 pm52 °FPartly sunny.1 mph58%30.01 "HgN/A
2:50 pm52 °FPartly sunny.5 mph58%30.01 "HgN/A
1:50 pm52 °FPartly sunny.2 mph58%30.01 "HgN/A
1:20 pm52 °FScattered clouds.2 mph62%30.01 "HgN/A
12:50 pm52 °FPartly sunny.2 mph62%30.01 "HgN/A
12:20 pm50 °FPartly sunny.3 mph67%30.04 "HgN/A
11:50 am50 °FPartly sunny.2 mph71%30.04 "HgN/A
11:20 am50 °FPartly sunny.3 mph76%30.04 "HgN/A
10:50 am48 °FPartly sunny.2 mph82%30.04 "HgN/A
10:20 am48 °FPartly sunny.2 mph82%30.04 "HgN/A
9:50 am46 °FScattered showers. Partly sunny.3 mph93%30.04 "HgN/A
9:20 am46 °FScattered showers. Partly sunny.5 mph87%30.04 "HgN/A
8:50 am45 °FBroken clouds.5 mph100%30.04 "HgN/A
8:20 am45 °FBroken clouds.2 mph100%30.04 "HgN/A
7:50 am45 °FSprinkles. Broken clouds.1 mph100%30.04 "HgN/A
7:20 am43 °FSprinkles. Broken clouds.5 mph100%30.04 "Hg6 mi
6:50 am43 °FBroken clouds.1 mph100%30.04 "HgN/A
6:20 am43 °FLight rain. Partly sunny.3 mph100%30.04 "Hg4 mi
5:50 am43 °FLow clouds.2 mph100%30.04 "Hg5 mi
5:20 am45 °FPartly cloudy.3 mph100%30.04 "Hg3 mi
4:50 am45 °FDrizzle. Mostly cloudy.3 mph100%30.04 "Hg2 mi
4:20 am45 °FDrizzle. Low clouds.2 mph100%30.01 "Hg2 mi
3:50 am45 °FLow clouds.3 mph100%30.01 "Hg4 mi
3:20 am45 °FDrizzle. Mostly cloudy.5 mph100%30.01 "Hg4 mi
2:50 am45 °FDrizzle. Fog.6 mph100%30.04 "Hg2 mi
2:20 am45 °FPartly cloudy.8 mph100%30.04 "Hg3 mi
1:50 am46 °FDrizzle. Overcast.10 mph93%30.04 "Hg6 mi
1:20 am48 °FMostly cloudy.13 mph82%30.04 "HgN/A
12:50 am48 °FPassing clouds.13 mph82%30.04 "HgN/A
12:20 am48 °FOvercast.12 mph76%30.04 "HgN/A
Weather by CustomWeather, © 2017

See weather overviewHow to use our weather pages